Location: Home
(42.5358°N, 72.7383°W)
Time: 20:36:24
(UTC-05:00)

Vanguard 2 - Pass Details

Date: 02 December 2021
Orbit: 553 x 2936 km, 32.9° (Epoch: 20 January)

Event Time Altitude Azimuth Distance (km) Brightness Sun altitude
Rises 18:46:27 0° 267° (W) 4,298 12.7 -26.6°
Reaches altitude 10° 18:49:32 10° 254° (WSW) 3,648 11.9 -27.2°
Maximum altitude 18:57:19 27° 202° (SSW) 3,252 10.9 -28.6°
Drops below altitude 10° 19:08:12 10° 154° (SSE) 5,207 11.5 -30.6°
Sets 19:13:50 0° 144° (SE) 6,508 12.0 -31.6°
